Location: ???????
(55.7027°N, 37.3832°E)
Time: 10:42:42
(UTC+00:00)

CZ-2C R/B - Pass Details

Date: 14 April 2026
Orbit: 702 x 901 km, 98.2° (Epoch: 19 May)

Event Time Altitude Azimuth Distance (km) Brightness Sun altitude
Rises 23:09:17 0° 10° (N) 3,177 7.5 -21.5°
Reaches altitude 10° 23:11:48 10° 359° (N) 2,276 6.3 -21.3°
Maximum altitude 23:15:58 28° 302° (WNW) 1,433 4.4 -21.0°
Enters shadow 23:17:54 22° 268° (W) 1,668 4.5 -20.9°
